Regional Weather Roundup
Issued by NWS

Home | Current Version | Previous Version | Graphics & Text | Print | Product List | Glossary Off
Versions: 1 2 3 4 5 6 7 8 9 10 11 12 13 14 15 16 17 18 19 20 21 22 23 24 25 26 27 28 29 30 31 32 33 34 35 36 37 38 39 40 41 42 43 44 45 46 47 48 49 50

000
ASUS43 KLSX 250107
RWRMO

WEATHER SUMMARY FOR MISSOURI
NATIONAL WEATHER SERVICE SPRINGFIELD MO
800 PM CDT FRI OCT 24 2014

NOTE: "FAIR" INDICATES FEW OR NO CLOUDS BELOW 12,000 FEET WITH NO
       SIGNIFICANT WEATHER AND/OR OBSTRUCTIONS TO VISIBILITY.
       CURRENT SKY AND/OR WEATHER CONDITIONS ARE NOT AVAILABLE FOR
       CHILLICOTHE AND FARMINGTON.

MOZ001>031-035>038-043-044-053-054-250200-
...NORTHERN AND WESTERN MISSOURI...

CITY           SKY/WX    TMP DP  RH WIND       PRES   REMARKS
KANSAS CTY INT MOCLDY    69  62  78 SW10      29.95R
KANSAS C DTWN  MOCLDY    72  61  68 W7        29.94R
LEE`S SUMMIT   MOCLDY    70  61  73 SW13      29.96R
ST JOSEPH      CLEAR     64  61  90 CALM      29.95R
CHILLICOTHE      N/A     62  59  90 CALM      29.96R
KIRKSVILLE     CLEAR     65  60  84 SW6       29.95R

$$
MOZ066>068-077>081-088>096-101>105-250200-
...SOUTHWEST MISSOURI...

CITY           SKY/WX    TMP DP  RH WIND       PRES   REMARKS
SPRINGFIELD    CLEAR     65  59  81 S9        30.03F
JOPLIN         CLEAR     64  61  90 S7        30.04S

$$
MOZ032>034-039>042-045>050-055>058-069>072-250200-
...CENTRAL MISSOURI...

CITY           SKY/WX    TMP DP  RH WIND       PRES   REMARKS
COLUMBIA       MOCLDY    66  59  78 S7        29.99S
JEFFERSON CITY MOCLDY    65  58  78 E5        29.98S
ROLLA          MOCLDY    64  58  80 S9        30.01S
SEDALIA        PTCLDY    69  61  75 S10       29.98S
WHITEMAN AFB   CLEAR     64  60  87 S9        29.96S
OSAGE BEACH    MOCLDY    66  57  72 S6        30.02R

$$
MOZ051-052-059>065-250200-
...EAST CENTRAL MISSOURI...

CITY           SKY/WX    TMP DP  RH WIND       PRES   REMARKS
ST LOUIS INTL  MOCLDY    69  49  48 S5        30.00S
SPIRIT OF STL  MOCLDY    62  50  64 CALM      29.99S
ST CHARLES     MOCLDY    61  51  70 E3        29.99S

$$
MOZ072>076-082>087-097>100-106>115-250200-
...SOUTH CENTRAL AND SOUTHEAST MISSOURI...

CITY           SKY/WX    TMP DP  RH WIND       PRES   REMARKS
CAPE GIRARDEAU PTCLDY    57  51  80 S3        30.05S
FARMINGTON     PTCLDY    63  52  67 S6        30.06S
POPLAR BLUFF   PTCLDY    59  53  80 CALM      30.05S
WEST PLAINS    MOCLDY    64  57  78 S5        30.08R

$$



USA.gov is the U.S. government's official web portal to all federal, state and local government web resources and services.